Phoenix, AZ

5:39 AM MST on June 23, 2018 (GMT -0700)
Phoenix Sky Harbor International

Weather History for KPHX - June, 2010

Change the Weather History Date:

Friday, June 11, 2010

  Actual Average Record
Temperature  
Mean Temperature 87 °F 90 °F  
Max Temperature 96 °F 103 °F 114 °F (1918)
Min Temperature 77 °F 76 °F 55 °F (1913)
Degree Days  
Heating Degree Days 0 0  
Month to date heating degree days 0 0  
Since 1 June heating degree days 0 0  
Since 1 July heating degree days 912 935  
Cooling Degree Days 22 25  
Month to date cooling degree days 283 256  
Year to date cooling degree days 935 1142  
Since 1 June cooling degree days 283 256  
Growing Degree Days 38 (Base 50)    
Moisture  
Dew Point 39 °F    
Average Humidity 20    
Maximum Humidity 28    
Minimum Humidity 12    
Precipitation  
Precipitation 0.00 in 0.00 in 0.02 in (1949)
Month to date precipitation 0.00 0.00  
Year to date precipitation 4.92 3.21  
Snow  
Snow 0.00 in - - ()
Month to date snowfall 0.0  
Year to date snowfall 0.0  
Since 1 July snowfall 0.0  
Snow Depth 0.00 in    
Sea Level Pressure  
Sea Level Pressure 29.61 in    
Wind  
Wind Speed 8 mph (SW)    
Max Wind Speed 24 mph    
Max Gust Speed 30 mph    
Visibility 10 miles    
Events      
T = Trace of Precipitation, MM = Missing Value Source: NWS Daily Summary

Daily Weather History Graph

Daily Weather History Graph

Search for Another Location

Airport or City:

Astronomy

Jun. 11, 2010 Rise Set
Actual Time 5:17 AM MST 7:37 PM MST
Civil Twilight 4:48 AM MST 8:06 PM MST
Nautical Twilight 4:13 AM MST 8:42 PM MST
Astronomical Twilight 3:35 AM MST 9:20 PM MST
Moon 4:20 AM MST (6/11) 7:16 PM MST (6/11)
Length of Visible Light 15h 17m
Length of Day
14h 20m
Waning Crescent, 1% of the Moon is Illuminated
Jun 11
Waning Crescent
Jun 12
New
Jun 18
First Quarter
Jun 26
Full
Jul 4
Last Quarter

Hourly Weather History & Observations

Time (MST) Temp. Dew Point Humidity Pressure Visibility Wind Dir Wind Speed Gust Speed Precip Events Conditions
12:51 AM 88.0 °F 39.9 °F 18% 29.59 in 10.0 mi NW 5.8 mph - N/A   Mostly Cloudy
1:51 AM 84.0 °F 39.9 °F 21% 29.59 in 10.0 mi SSE 6.9 mph - N/A   Mostly Cloudy
2:51 AM 82.0 °F 39.0 °F 22% 29.59 in 10.0 mi SE 9.2 mph - N/A   Mostly Cloudy
3:51 AM 81.0 °F 45.0 °F 28% 29.60 in 10.0 mi Calm Calm - N/A   Mostly Cloudy
4:51 AM 81.0 °F 43.0 °F 26% 29.60 in 10.0 mi NNE 3.5 mph - N/A   Mostly Cloudy
5:51 AM 81.0 °F 44.1 °F 27% 29.62 in 10.0 mi Calm Calm - N/A   Mostly Cloudy
6:51 AM 82.0 °F 45.0 °F 27% 29.64 in 10.0 mi NNW 3.5 mph - N/A   Mostly Cloudy
7:51 AM 82.9 °F 45.0 °F 26% 29.65 in 10.0 mi Calm Calm - N/A   Scattered Clouds
8:51 AM 86.0 °F 48.0 °F 27% 29.65 in 10.0 mi South 11.5 mph - N/A   Scattered Clouds
9:51 AM 88.0 °F 45.0 °F 22% 29.64 in 10.0 mi SSE 15.0 mph 21.9 mph N/A   Mostly Cloudy
10:51 AM 86.0 °F 48.0 °F 27% 29.64 in 10.0 mi WSW 5.8 mph - N/A   Mostly Cloudy
11:51 AM 88.0 °F 48.0 °F 25% 29.64 in 10.0 mi WSW 12.7 mph - N/A   Mostly Cloudy
12:51 PM 91.0 °F 46.9 °F 22% 29.62 in 10.0 mi SSW 4.6 mph - N/A   Mostly Cloudy
1:51 PM 91.9 °F 44.1 °F 19% 29.60 in 10.0 mi West 10.4 mph 23.0 mph N/A   Scattered Clouds
2:51 PM 93.9 °F 44.1 °F 18% 29.58 in 10.0 mi Variable 5.8 mph - N/A   Scattered Clouds
3:51 PM 96.8 °F 44.6 °F 17% 29.62 in 10.0 mi WSW 10.4 mph 19.6 mph N/A   Mostly Cloudy
4:51 PM 93.0 °F 37.9 °F 15% 29.55 in 10.0 mi WNW 19.6 mph 26.5 mph N/A   Mostly Cloudy
5:51 PM 93.0 °F 32.0 °F 12% 29.55 in 10.0 mi West 21.9 mph 28.8 mph N/A   Mostly Cloudy
6:51 PM 91.0 °F 32.0 °F 12% 29.56 in 10.0 mi SW 16.1 mph 23.0 mph N/A   Mostly Cloudy
7:03 PM 91.4 °F 28.4 °F 10% 29.62 in 10.0 mi SSW 18.4 mph 29.9 mph N/A   Mostly Cloudy
7:51 PM 87.1 °F 28.0 °F 12% 29.57 in 10.0 mi SW 11.5 mph - N/A   Scattered Clouds
8:51 PM 84.0 °F 27.0 °F 13% 29.59 in 10.0 mi SW 12.7 mph - N/A   Scattered Clouds
9:51 PM 82.0 °F 30.9 °F 16% 29.61 in 10.0 mi SSW 4.6 mph - N/A   Partly Cloudy
10:51 PM 80.1 °F 32.0 °F 17% 29.63 in 10.0 mi SSE 3.5 mph - N/A   Partly Cloudy
11:51 PM 77.0 °F 28.9 °F 17% 29.63 in 10.0 mi SSE 8.1 mph - N/A   Clear